Location: Mannheim
(49.4880°N, 8.4650°E)
Time: 01:44:06
(UTC+01:00)

ISS - Pass Details

Date: 25 January 2023
Orbit: 413 x 419 km, 51.6° (Epoch: 30 January)

Event Time Altitude Azimuth Distance (km) Brightness Sun altitude
Rises 17:41:47 0° 255° (WSW) 2,362 2.5 -5.5°
Reaches altitude 10° 17:43:53 10° 257° (WSW) 1,500 0.8 -5.8°
Maximum altitude 17:47:15 79° 344° (NNW) 432 -3.7 -6.3°
Drops below altitude 10° 17:50:38 10° 72° (ENE) 1,505 -1.6 -6.8°
Enters shadow 17:50:49 - 72° (ENE) 1,582 -1.5 -6.9°
